TimeMST,TemperatureF,Dew PointF,Humidity,Sea Level PressureIn,VisibilityMPH,Wind Direction,Wind SpeedMPH,Gust SpeedMPH,PrecipitationIn,Events,Conditions,WindDirDegrees,DateUTC
12:53 AM,18.0,15.1,88,30.36,4.0,Calm,Calm,-,0.00,Snow,Light Snow,0,2012-12-09 07:53:00
1:24 AM,17.6,15.8,93,30.24,3.0,Calm,Calm,-,0.00,Snow,Light Snow,0,2012-12-09 08:24:00
1:27 AM,17.6,15.8,93,30.24,1.8,Calm,Calm,-,0.00,Snow,Light Snow,0,2012-12-09 08:27:00
1:36 AM,17.6,15.8,93,30.24,1.2,Calm,Calm,-,0.00,Snow,Light Snow,0,2012-12-09 08:36:00
1:44 AM,17.6,15.8,93,30.24,2.0,Calm,Calm,-,0.00,Snow,Light Snow,0,2012-12-09 08:44:00
1:53 AM,17.1,15.1,92,30.37,5.0,Calm,Calm,-,0.00,Snow,Light Snow,0,2012-12-09 08:53:00
2:00 AM,17.6,15.8,93,30.24,8.0,Calm,Calm,-,0.00,,Overcast,0,2012-12-09 09:00:00
2:53 AM,19.0,15.1,85,30.39,4.0,Calm,Calm,-,0.00,Snow,Light Snow,0,2012-12-09 09:53:00
3:00 AM,19.4,15.8,86,30.26,2.0,Calm,Calm,-,0.00,Snow,Light Snow,0,2012-12-09 10:00:00
3:12 AM,19.4,15.8,86,30.26,1.8,Calm,Calm,-,0.01,Snow,Light Snow,0,2012-12-09 10:12:00
3:20 AM,17.6,15.8,93,30.26,3.0,ESE,3.5,-,0.01,Snow,Light Snow,110,2012-12-09 10:20:00
3:53 AM,16.0,14.0,92,30.41,10.0,Variable,3.5,-,0.01,,Mostly Cloudy,0,2012-12-09 10:53:00
4:53 AM,10.9,8.1,88,30.45,10.0,Calm,Calm,-,N/A,,Clear,0,2012-12-09 11:53:00
5:38 AM,10.4,6.8,85,30.32,10.0,Calm,Calm,-,N/A,,Mostly Cloudy,0,2012-12-09 12:38:00
5:53 AM,10.9,7.0,84,30.49,7.0,East,3.5,-,N/A,,Overcast,100,2012-12-09 12:53:00
6:24 AM,14.0,10.4,86,30.33,10.0,ESE,6.9,-,N/A,,Overcast,110,2012-12-09 13:24:00
6:53 AM,12.9,10.0,88,30.49,10.0,ESE,6.9,-,N/A,,Overcast,120,2012-12-09 13:53:00
7:53 AM,15.1,12.0,88,30.51,10.0,ESE,5.8,-,N/A,,Overcast,120,2012-12-09 14:53:00
8:43 AM,12.2,8.6,85,30.36,10.0,SSE,5.8,-,N/A,,Scattered Clouds,150,2012-12-09 15:43:00
8:53 AM,9.0,7.0,92,30.54,10.0,SE,6.9,-,N/A,,Partly Cloudy,130,2012-12-09 15:53:00
9:53 AM,12.0,8.1,84,30.53,10.0,ESE,9.2,-,N/A,,Clear,110,2012-12-09 16:53:00
10:53 AM,16.0,9.0,74,30.52,10.0,Calm,Calm,-,N/A,,Clear,0,2012-12-09 17:53:00
11:53 AM,16.0,8.1,71,30.50,10.0,SSE,4.6,-,N/A,,Clear,150,2012-12-09 18:53:00
12:53 PM,16.0,10.9,81,30.48,10.0,Calm,Calm,-,N/A,,Mostly Cloudy,0,2012-12-09 19:53:00
1:53 PM,17.1,12.0,81,30.44,10.0,Calm,Calm,-,N/A,,Overcast,0,2012-12-09 20:53:00
2:53 PM,18.0,10.0,71,30.42,10.0,Calm,Calm,-,N/A,,Overcast,0,2012-12-09 21:53:00
3:53 PM,18.0,12.0,78,30.42,10.0,Calm,Calm,-,N/A,,Overcast,0,2012-12-09 22:53:00
4:53 PM,19.0,12.0,74,30.40,10.0,Calm,Calm,-,N/A,,Overcast,0,2012-12-09 23:53:00
5:53 PM,17.1,12.0,81,30.39,10.0,Calm,Calm,-,N/A,,Overcast,0,2012-12-10 00:53:00
6:53 PM,19.0,12.9,77,30.37,10.0,Calm,Calm,-,N/A,,Overcast,0,2012-12-10 01:53:00
7:53 PM,18.0,12.9,81,30.35,10.0,Calm,Calm,-,N/A,,Overcast,0,2012-12-10 02:53:00
8:53 PM,19.0,15.1,85,30.36,10.0,WSW,5.8,-,0.00,Snow,Light Snow,250,2012-12-10 03:53:00
10:53 PM,19.0,15.1,85,30.30,6.0,Calm,Calm,-,0.00,Snow,Light Snow,0,2012-12-10 05:53:00
11:53 PM,21.0,17.1,85,30.28,5.0,ENE,3.5,-,0.01,Snow,Light Snow,70,2012-12-10 06:53:00